Alvadore, OR

10:11 PM PST on February 26, 2017 (GMT -0800)
Mahlon Sweet

Weather History for KEUG - December, 2012

Change the Weather History Date:

Saturday, December 29, 2012

  Actual Average Record
Temperature  
Mean Temperature 37 °F 39 °F  
Max Temperature 39 °F 45 °F 63 °F (1917)
Min Temperature 35 °F 33 °F 12 °F (1978)
Degree Days  
Heating Degree Days 28 26  
Month to date heating degree days 643 735  
Since 1 July heating degree days 1570 1908  
Cooling Degree Days 0 0  
Month to date cooling degree days 0 0  
Year to date cooling degree days 230 239  
Moisture  
Dew Point 36 °F    
Average Humidity 93    
Maximum Humidity 100    
Minimum Humidity 85    
Precipitation  
Precipitation T in 0.22 in 1.23 in (1996)
Month to date precipitation 7.45 7.38  
Year to date precipitation 50.19 45.65  
Snow  
Snow 0.00 in - - ()
Month to date snowfall 0.0  
Since 1 July snowfall 0.0  
Snow Depth 0.00 in    
Sea Level Pressure  
Sea Level Pressure 30.19 in    
Wind  
Wind Speed 2 mph (NNE)    
Max Wind Speed 7 mph    
Max Gust Speed 8 mph    
Visibility 6 miles    
Events Snow    
T = Trace of Precipitation, MM = Missing Value Source: NWS Daily Summary

Daily Weather History Graph

Daily Weather History Graph

Search for Another Location

Airport or City:

Trip Planner

Search our weather history database for the weather conditions in past years. The results will help you decide how hot, cold, wet, or windy it might be!

Date:

Astronomy

Dec. 29, 2012 Rise Set
Actual Time 7:47 AM PST 4:42 PM PST
Civil Twilight 7:14 AM PST 5:16 PM PST
Nautical Twilight 6:38 AM PST 5:52 PM PST
Astronomical Twilight 6:02 AM PST 6:27 PM PST
Moon 6:25 PM PST (12/29) 8:21 AM PST (12/29)
Length of Visible Light 10h 01m
Length of Day
8h 55m
Full, 98% of the Moon is Illuminated
Dec 29
Full
Jan 4
Last Quarter
Jan 11
New
Jan 18
First Quarter
Jan 26
Full

Hourly Weather History & Observations

Time (PST) Temp. Windchill Dew Point Humidity Pressure Visibility Wind Dir Wind Speed Gust Speed Precip Events Conditions
12:18 AM 35.6 °F - 35.6 °F 100% 30.15 in 5.0 mi Calm Calm - 0.00 in   Mostly Cloudy
12:27 AM 35.6 °F - 35.6 °F 100% 30.16 in 7.0 mi Calm Calm - 0.00 in   Mostly Cloudy
12:54 AM 36.0 °F - 36.0 °F 100% 30.17 in 8.0 mi Calm Calm - 0.00 in   Overcast
1:54 AM 37.0 °F 34.5 °F 36.0 °F 96% 30.17 in 10.0 mi North 3.5 mph - N/A   Overcast
2:54 AM 37.0 °F 34.5 °F 35.1 °F 93% 30.18 in 8.0 mi North 3.5 mph - N/A   Overcast
3:54 AM 37.4 °F - 37.4 °F 100% 30.17 in 6.0 mi Calm Calm - N/A   Overcast
4:54 AM 37.0 °F 33.3 °F 37.0 °F 100% 30.19 in 5.0 mi NE 4.6 mph - N/A   Overcast
5:51 AM 37.4 °F 33.8 °F 37.4 °F 100% 30.19 in 4.0 mi ENE 4.6 mph - N/A   Overcast
5:54 AM 37.0 °F 33.3 °F 37.0 °F 100% 30.20 in 4.0 mi NE 4.6 mph - N/A   Overcast
6:02 AM 37.4 °F 34.9 °F 37.4 °F 100% 30.20 in 1.0 mi NE 3.5 mph - N/A   Overcast
6:23 AM 37.4 °F 34.9 °F 37.4 °F 100% 30.20 in 1.5 mi NE 3.5 mph - N/A   Overcast
6:36 AM 37.4 °F 34.9 °F 37.4 °F 100% 30.20 in 2.5 mi NE 3.5 mph - N/A   Overcast
6:52 AM 37.4 °F 34.9 °F 37.4 °F 100% 30.20 in 3.0 mi NE 3.5 mph - N/A   Overcast
6:54 AM 37.0 °F - 37.0 °F 100% 30.21 in 3.0 mi Calm Calm - N/A   Overcast
7:54 AM 37.0 °F 33.3 °F 36.0 °F 96% 30.21 in 6.0 mi NE 4.6 mph - N/A   Overcast
8:54 AM 37.0 °F 34.5 °F 35.1 °F 93% 30.22 in 5.0 mi WNW 3.5 mph - 0.00 in Snow Light Snow
9:54 AM 37.0 °F 32.4 °F 35.1 °F 93% 30.24 in 6.0 mi North 5.8 mph - N/A   Overcast
10:54 AM 37.0 °F 33.3 °F 36.0 °F 96% 30.24 in 5.0 mi North 4.6 mph - N/A   Overcast
11:54 AM 37.9 °F - 35.1 °F 89% 30.22 in 5.0 mi Calm Calm - N/A   Overcast
12:54 PM 37.0 °F - 34.0 °F 89% 30.19 in 7.0 mi Calm Calm - N/A   Overcast
1:54 PM 39.0 °F - 35.1 °F 86% 30.17 in 7.0 mi Calm Calm - N/A   Overcast
2:54 PM 37.4 °F 33.8 °F 33.8 °F 87% 30.17 in 8.0 mi West 4.6 mph - N/A   Overcast
3:54 PM 37.9 °F - 34.0 °F 86% 30.18 in 8.0 mi Calm Calm - N/A   Overcast
4:54 PM 37.0 °F 33.3 °F 35.1 °F 93% 30.16 in 9.0 mi SE 4.6 mph - N/A   Mostly Cloudy
5:38 PM 37.4 °F - 35.6 °F 93% 30.15 in 10.0 mi Calm Calm - N/A   Overcast
5:54 PM 37.0 °F - 35.1 °F 93% 30.17 in 10.0 mi Calm Calm - N/A   Overcast
6:33 PM 37.4 °F - 35.6 °F 93% 30.16 in 10.0 mi Calm Calm - N/A   Overcast
6:54 PM 37.0 °F - 35.1 °F 93% 30.18 in 9.0 mi Calm Calm - N/A   Overcast
7:54 PM 37.0 °F - 36.0 °F 96% 30.18 in 8.0 mi Calm Calm - N/A   Overcast
8:54 PM 37.0 °F - 36.0 °F 96% 30.19 in 8.0 mi Calm Calm - N/A   Overcast
9:54 PM 37.0 °F - 35.1 °F 93% 30.20 in 8.0 mi Calm Calm - N/A   Overcast
10:23 PM 35.6 °F 32.8 °F 35.6 °F 100% 30.19 in 7.0 mi South 3.5 mph - N/A   Overcast
10:54 PM 35.1 °F - 34.0 °F 96% 30.21 in 8.0 mi Calm Calm - N/A   Mostly Cloudy
11:18 PM 35.6 °F - 33.8 °F 93% 30.20 in 8.0 mi Calm Calm - N/A   Overcast
11:46 PM 35.6 °F - 35.6 °F 100% 30.20 in 4.0 mi Calm Calm - N/A   Overcast
11:54 PM 36.0 °F 32.1 °F 35.1 °F 97% 30.21 in 4.0 mi WNW 4.6 mph - N/A   Overcast